www.pogodaiklimat.ru

Погода и климат >> Архив погоды >> Россия >> Кемеровская область >> Мариинск


ПОГОДА в Мариинске

  • Прогноз погоды в Мариинске
  • Монитор погоды в Мариинске

АРХИВ ПОГОДЫ в Мариинске

Время (UTC), дата Ветер
(напр.,м/с)
 
Видим.   Явления Облачность Т
(С)
Тd
(С)
f
(%)
Тe
(С)
Тes
(С)
Комфортность P
(гПа)
Po
(гПа)
Тmin
(С)
Tmax
(С)
R
(мм)
R24
(мм)
S
(см)
15 19.03 З 1 20 км в посл. час ливневой снег 6/3 600 м
[Cb calv Ci fib]
-5.5 -7.4 86 -8 -8 1031.2 1012.4
18 19.03 З 2 20 км {ливн. осадки} 10/4 600 м
[Cb calv Ci sp]
-4.6 -6.4 87 -9 -9 1031.7 1013.0
21 19.03 З 2 10 км слаб. ливневой снег 10/8 600 м
[Cb calv Ci sp]
-4.3 -6.4 85 -8 -8 1032.5 1013.8
00 20.03 З 2 10 км слаб. ливневой снег 10/10 600 м
[Cb calv]
-4.6 -6.0 90 -9 -9 1033.3 1014.6 -6.3 0.2 1
03 20.03 З 2 20 км слаб. ливневой снег 10/8 600 м
[Cb calv As op]
-3.7 -5.7 86 -8 -8 1034.5 1015.8
06 20.03 З 2 50 км {ливн. осадки} 8/8 600 м
[Cb calv]
-2.1 -7.2 68 -6 -4 1034.8 1016.2
09 20.03 СЗ 1 50 км {ливн. осадки} 10/10 600 м
[Cb calv]
-0.8 -8.0 58 -2 -2 1034.3 1015.8
12 20.03 ЮЗ 1 20 км {ливн. осадки} 10/8 600 м
[Cb calv Ci sp]
-1.2 -7.2 64 -3 -3 1034.5 1016.0 -0.4 0.0
15 20.03 штиль 0 20 км 10/10 600 м
[Cb calv]
-1.5 -6.2 70 -2 -2 1034.6 1016.1
18 20.03 ЮЗ 2 20 км 10/6 600 м
[Cb calv Ci sp]
-1.9 -7.3 67 -5 -5 1033.6 1015.1
21 20.03 ЮЗ 2 20 км 10/8 600 м
[Cb calv Ci sp]
-2.4 -8.5 63 -6 -6 1033.4 1014.8
00 21.03 ЮЗ 2 20 км 10/3 600 м
[Cb calv Ac trans Ci sp]
-4.5 -9.0 71 -8 -8 1033.4 1014.6 -4.6 1
03 21.03 ЮЗ 2 50 км 10/5 600 м
[Cb calv Ac trans Ci sp]
-3.2 -8.0 69 -7 -6 1033.5 1014.9 -4.7
06 21.03 Ю 1 50 км 8/4 600 м
[Cb calv Ac trans Ci fib]
+1.4 -6.8 54 0 +4 1032.5 1014.2
09 21.03 Ю 1 50 км 4/3 600 м
[Cb calv Ac trans Ci fib]
+4.7 -7.3 41 +4 +7 1030.8 1012.7
12 21.03 ЮЗ 1 20 км 3/0
[Ci fib]
+3.7 -7.8 43 +3 +3 1029.9 1011.8 +5.2
15 21.03 З 2 20 км 5/0
[Ci fib]
-0.5 -8.4 55 -4 -4 1029.5 1011.1
18 21.03 штиль 0 20 км ясно -2.6 -8.3 65 -3 -3 1028.6 1010.1
21 21.03 Ю 1 20 км ясно -3.9 -8.9 68 -6 -6 1026.8 1008.3
00 22.03 ЮЗ 3 20 км 3/3 600 м
[Sc Ci fib]
-5.3 -9.0 75 -11 -11 1026.2 1007.5 -6.2 1
03 22.03 штиль 0 н/о н/о -0.5 -7.8 58 -1 -1 1024.9 1006.6 -6.1
06 22.03 ЮЗ 4 50 км 10/0
[Ci sp]
+5.1 -8.4 37 +2 +6 1022.4 1004.5
09 22.03 ЮЗ 5
{11}
50 км 10/0
[Ci sp]
+6.5 -9.2 32 +3 +5 1020.7 1002.9
12 22.03 З 3
{10}
20 км 10/0
[Ci fib]
+4.3 -8.5 39 +2 +2 1020.6 1002.7 +7.2
15 22.03 З 3 20 км 10/0
[Ci sp]
+2.2 -7.8 48 -1 -1 1020.8 1002.8
18 22.03 Ю 1 20 км 10/3 600 м
[Cb calv Ac trans Ci sp]
+0.1 -8.1 54 -1 -1 1021.5 1003.3
21 22.03 ЮЗ 3 20 км 10/0
[Ci sp]
-0.6 -7.8 58 -5 -5 1021.3 1003.1
00 23.03 ЮЗ 2 20 км 10/4 600 м
[Cb calv Ci sp]
-0.3 -7.2 60 -3 -3 1021.2 1003.0 -1.1 <0.5
03 23.03 ЮЗ 4 50 км 10/6 600 м
[Cb calv Ac trans Ci sp]
+1.4 -7.0 54 -3 -3 1021.5 1003.4
06 23.03 ЮЗ 1 50 км 10/4 600 м
[Cb calv Ac trans Ci sp]
+4.1 -7.2 44 +3 +6 1020.7 1002.8
09 23.03 СЗ 2 50 км 10/4 600 м
[Cb calv Ac trans Ci sp]
+4.7 -7.0 42 +3 +4 1019.6 1001.8
12 23.03 штиль 0 50 км 10/3 600 м
[Cb calv Ac trans Ci sp]
+3.0 -5.5 54 +3 +3 1019.3 1001.3 +5.6
15 23.03 штиль 0 20 км 9/3 600 м
[Cb calv Ci sp]
+1.5 -6.1 57 +1 +1 1019.5 1001.4
18 23.03 штиль 0 20 км 10/4 600 м
[Cb calv As op]
+1.3 -2.4 76 0 0 1018.5 1000.4
21 23.03 штиль 0 20 км 10/6 600 м
[Cb calv As op]
+1.1 -2.2 79 0 0 1017.5 999.5
00 24.03 штиль 0 20 км 10/4 600 м
[Cb calv Ac trans Ci sp]
+0.4 -3.4 76 -1 -1 1016.8 998.8 +0.4 0
03 24.03 ЮЗ 2 50 км 10/4 600 м
[Cb calv Ac trans Ci sp]
+2.6 -4.7 59 0 +1 1016.4 998.5 -0.5
06 24.03 ЮЗ 2 50 км {ливн. осадки} 10/8 600 м
[Cb calv Ci sp]
+3.8 -1.9 66 +1 +3 1016.0 998.2
09 24.03 СЗ 3 50 км 6/4 600 м
[Cb calv Ci fib]
+5.4 -2.0 59 +2 +4 1016.2 998.4
12 24.03 З 1 50 км 10/3 600 м
[Cb calv Ci fib]
+3.3 -2.7 65 +2 +2 1016.8 998.9 +5.7 0.0
15 24.03 ЮЗ 2 20 км 10/6 600 м
[Cb calv Ci sp]
+2.5 -2.8 68 -0 -0 1016.9 998.9
18 24.03 штиль 0 20 км 10/10 600 м
[Cb calv]
+1.2 -1.4 83 0 0 1017.5 999.5
21 24.03 штиль 0 10 км слаб. ливневой снег 10/8 600 м
[Cb calv Ci sp]
-0.1 -1.1 93 -1 -1 1018.4 1000.3
00 25.03 З 2 20 км {ливн. осадки} 10/8 600 м
[Cb calv Ci sp]
-1.0 -1.8 94 -5 -5 1020.5 1002.3 -1.0 0.9 8
03 25.03 СЗ 3 50 км 4/0
[Ci fib]
+0.9 -3.1 75 -3 -0 1022.8 1004.7 -2.3
06 25.03 СЗ 4 50 км 6/6 1000 м
[Cu hum]
+3.2 -8.1 43 -1 +2 1024.3 1006.3
09 25.03 СЗ 5 50 км 6/6 1000 м
[Cu hum]
+4.0 -8.3 40 -0 +1 1025.8 1007.8
12 25.03 СЗ 4 50 км 5/4 1000 м
[Cb calv Ci fib]
+2.6 -8.1 45 -1 -1 1027.8 1009.7 +4.4
15 25.03 штиль 0 20 км ясно -1.3 -8.0 60 -2 -2 1030.1 1011.6
18 25.03 штиль 0 20 км ясно -3.9 -7.4 77 -5 -5 1031.3 1012.6
21 25.03 штиль 0 20 км ясно -5.5 -7.3 87 -6 -6 1032.4 1013.6
00 26.03 штиль 0 20 км 3/0
[Ci fib]
-7.1 -8.7 88 -8 -8 1033.9 1015.0 -7.2 0
03 26.03 В 1 50 км 3/0
[Ci fib]
-0.2 -8.3 54 -2 +3 1034.9 1016.4 -7.3
06 26.03 Ю 1 50 км 1/0
[Ci fib]
+3.9 -10.5 34 +3 +13 опасность
простуды
1034.4 1016.2
09 26.03 ЮВ 1 50 км ясно +4.3 -11.3 31 +4 +9 1033.2 1015.0

 

Местоположение метеостанции Мариинск (Кемеровская область, Россия): широта 56.18 долгота 87.68 высота над уровнем моря 144 м.

В архиве по умолчанию представлена погода в Мариинске за последнюю неделю. Архивные данные за месяц целиком и за предыдущие месяцы, начиная с января 2011 года, Вы можете получить, выбрав интересующий диапазон дат из раскрывающегося списка и нажав кнопку "Ввод!".


*Определитесь, кто Вы:
робот инопланетянин человек

Внимание! Время в таблицах - всемирное. Для получения местного времени необходимо прибавить поправку, которая равна 7 ч.

Смотрите также архив погоды в соседних городах и на ближайших метеорологических станциях:

Погода в Тяжине (Кемеровская область, Россия) (52 км)
Погода в Тисуле (Кемеровская область, Россия) (61 км)
Погода в Яе (Кемеровская область, Россия) (75 км)
Погода в Барзасе (Кемеровская область, Россия) (103 км)
Погода в Тюхтете (Красноярский край, Россия) (108 км)
Погода в Центральном Руднике (Кемеровская область, Россия) (109 км)
Погода в Боготоле (Красноярский край, Россия) (118 км)
Погода в Шарыпово (Красноярский край, Россия) (119 км)
Погода в Кемерово АМС (Кемеровская область, Россия) (127 км)
Погода в Тегульдете (Томская область, Россия) (128 км)

Пояснения к столбцам:

Ветер - указаны скорость ветра в м/с - средняя за 10 мин, порывы в срок и между сроками (в фигурных скобках) и направление, откуда дует ветер: С - северный, СВ - северо-восточный, В - восточный, ЮВ - юго-восточный, Ю - южный, ЮЗ - юго-западный, З - западный, СЗ - северо-западный.
Видимость - горизонтальная дальность видимости в метрах или километрах. При видимости от 1 до 10 км при отсутствии осадков обычно наблюдается дымка, при ухудшении видимости до 1 км и менее - туман. В сухую погоду видимость может ухудшаться дымом, пылью или мглою.
Явления - указаны атмосферные явления, наблюдавшиеся в срок или в последний час перед сроком; фигурными скобками обозначены явления, наблюдавшиеся между сроками (за 1-3 часа до срока); квадратными скобками обозначены град или гололедные отложения с указанием их диаметра в мм.
Облачность - указаны через наклонную черту общая и нижняя облачность в баллах и высота нижней границы облаков в метрах; квадратными скобками обозначены формы облаков: Ci - перистые, Cs - перисто-слоистые, Cc - перисто-кучевые, Ac - высококучевые, As - высокослоистые, Sc - слоисто-кучевые, Ns - слоисто-дождевые, Cu - кучевые, Cb - кучево-дождевые. Подробнее классификацию облаков см. в Атласе облаков (PDF).
T - Температура воздуха - температура, измеренная на высоте 2 м над землей.
Td - Температура точки росы - температура, при понижении до которой содержащийся в воздухе водяной пар достигнет насыщения.
f - Относительная влажность воздуха - влажноcть воздуха, измеренная на высоте 2 м над землей.
Te - Эффективная температура - температура, которую ощущает одетый по сезону человек в тени. Характеристика душности погоды. При расчете учитывается влияние влажности воздуха и скорости ветра на теплоощущения человека.
Tes - Эффективная температура на солнце - температура, которую ощущает человек, с поправкой на солнечный нагрев. Характеристика знойности погоды. Зависит от высоты солнца над горизонтом, облачности и скорости ветра. Ночью, в пасмурную погоду, а также при ветре 12 м/с и более поправка равна нулю.
P - Атмосферное давление - приведенное к уровню моря атмосферное давление.
Po - Атмосферное давление - измеренное на уровне метеостанции атмосферное давление.
Tmin - Минимальная температура - минимум температуры воздуха на высоте 2 м над землей.
Tmax - Максимальная температура - максимум температуры воздуха на высоте 2 м над землей.
R - Количество осадков - Количество выпавших осадков за период времени, мм. При наведении курсора мыши на число - период времени, за который выпало указанное количество осадков.
R24 - Количество осадков - Количество выпавших осадков за 24 часа, мм.
S - Снежный покров - Высота снежного покрова, см. При наведении курсора мыши на число - состояние снежного покрова и степень покрытия местности в баллах.